This is the latest recevied weather packets stored in our database for station/object K0FJ-1. If no packets are shown the sender has not sent any weather packets the latest 10 day(s).
| Time | Temp. | Humidity | Pressure | Rain* | Wind** | Luminosity | Snow |
|---|---|---|---|---|---|---|---|
| 1787513103 | 27.22° C | 67% | 1019.6 hPa | 0 mm | - | - | - |
| 1787512803 | 26.67° C | 68% | 1019.7 hPa | 0 mm | - | - | - |
| 1787512503 | 26.67° C | 67% | 1019.8 hPa | 0 mm | - | - | - |
| 1787512203 | 26.67° C | 68% | 1020 hPa | 0 mm | - | - | - |
| 1787511905 | 26.67° C | 69% | 1019.9 hPa | 0 mm | - | - | - |
| 1787511603 | 26.11° C | 69% | 1020.1 hPa | 0 mm | - | - | - |
| 1787511303 | 26.11° C | 69% | 1020.1 hPa | 0 mm | - | - | - |
| 1787511003 | 26.11° C | 70% | 1020.2 hPa | 0 mm | - | - | - |
| 1787510703 | 26.11° C | 70% | 1020.3 hPa | 0 mm | - | - | - |
| 1787510405 | 25.56° C | 71% | 1020.4 hPa | 0 mm | - | - | - |
| 1787510103 | 25.56° C | 70% | 1020.3 hPa | 0 mm | - | - | - |
| 1787509803 | 25.56° C | 72% | 1020.2 hPa | 0 mm | - | - | - |
| 1787509503 | 25.56° C | 71% | 1020.4 hPa | 0 mm | - | - | - |
| 1787509203 | 25.56° C | 71% | 1020.6 hPa | 0 mm | - | - | - |
| 1787508903 | 25.56° C | 71% | 1020.7 hPa | 0 mm | - | - | - |
| 1787508603 | 25.56° C | 72% | 1020.8 hPa | 0 mm | - | - | - |
| 1787508303 | 25° C | 73% | 1020.9 hPa | 0 mm | - | - | - |
| 1787508003 | 25° C | 72% | 1021.1 hPa | 0 mm | - | - | - |
| 1787507703 | 25° C | 74% | 1021.2 hPa | 0 mm | - | - | - |
| 1787507403 | 24.44° C | 75% | 1021.2 hPa | 0 mm | - | - | - |
| 1787507103 | 24.44° C | 73% | 1021.2 hPa | 0 mm | - | - | - |
| 1787506803 | 24.44° C | 76% | 1021.2 hPa | 0 mm | - | - | - |
| 1787506503 | 23.89° C | 78% | 1021.4 hPa | 0 mm | - | - | - |
| 1787506203 | 23.33° C | 78% | 1021.5 hPa | 0 mm | - | - | - |
| 1787505903 | 23.33° C | 78% | 1021.6 hPa | 0 mm | - | - | - |
* Rain latest hour (hover to see other rain measurements)
** Current wind speed in m/s (hover to see current wind gust speed)